�������l�o���
Date,Time,MP-1(��Sv/h),MP-2(��Sv/h),MP-3(��Sv/h),MP-4(��Sv/h),MP-5(��Sv/h),MP-6(��Sv/h),MP-7(��Sv/h),MP-8(��Sv/h),����,����(m/s),���J
2023/03/05,00:00,0.572,0.836,0.506,1.065,0.741,0.322,0.586,0.556,�k�k��,8.4,��
2023/03/05,00:10,0.572,0.836,0.505,1.065,0.741,0.324,0.585,0.556,�k�k��,6.3,��
2023/03/05,00:20,0.571,0.837,0.504,1.064,0.740,0.323,0.585,0.557,�k�k��,5.7,��
2023/03/05,00:30,0.571,0.836,0.505,1.064,0.741,0.324,0.586,0.556,�k�k��,5.8,��
2023/03/05,00:40,0.571,0.836,0.505,1.066,0.741,0.325,0.585,0.556,�k��,5.8,��
2023/03/05,00:50,0.573,0.837,0.504,1.064,0.741,0.322,0.587,0.556,�k�k��,5.1,��
2023/03/05,01:00,0.571,0.837,0.505,1.064,0.740,0.324,0.586,0.557,�k�k��,5.9,��
2023/03/05,01:10,0.571,0.833,0.505,1.064,0.741,0.324,0.585,0.556,�k�k��,6.9,��
2023/03/05,01:20,0.571,0.835,0.505,1.061,0.741,0.325,0.585,0.556,�k�k��,5.6,��
2023/03/05,01:30,0.570,0.836,0.504,1.066,0.740,0.323,0.586,0.557,�k��,5.6,��
2023/03/05,01:40,0.572,0.837,0.504,1.065,0.740,0.324,0.585,0.557,�k�k��,5.5,��
2023/03/05,01:50,0.571,0.835,0.505,1.064,0.742,0.323,0.586,0.557,�k��,5.9,��
2023/03/05,02:00,0.571,0.835,0.504,1.062,0.741,0.323,0.586,0.557,�k��,6.4,��
2023/03/05,02:10,0.572,0.835,0.504,1.065,0.740,0.324,0.585,0.556,�k��,5.7,��
2023/03/05,02:20,0.569,0.834,0.505,1.063,0.740,0.324,0.585,0.556,�k��,5.6,��
2023/03/05,02:30,0.571,0.837,0.504,1.063,0.739,0.323,0.585,0.555,�k�k��,6.2,��
2023/03/05,02:40,0.571,0.835,0.505,1.063,0.739,0.324,0.584,0.556,�k��,6.0,��
2023/03/05,02:50,0.571,0.834,0.505,1.066,0.740,0.323,0.585,0.558,�k�k��,6.0,��
2023/03/05,03:00,0.570,0.833,0.505,1.065,0.739,0.323,0.584,0.557,�k�k��,6.5,��
2023/03/05,03:10,0.571,0.834,0.505,1.064,0.740,0.323,0.584,0.556,�k�k��,7.2,��
2023/03/05,03:20,0.570,0.835,0.505,1.065,0.741,0.322,0.585,0.556,�k�k��,7.4,��
2023/03/05,03:30,0.570,0.838,0.505,1.065,0.741,0.323,0.586,0.556,�k��,6.9,��
2023/03/05,03:40,0.571,0.834,0.505,1.064,0.739,0.323,0.583,0.555,�k�k��,7.0,��
2023/03/05,03:50,0.571,0.835,0.505,1.063,0.738,0.323,0.587,0.556,�k��,6.9,��
2023/03/05,04:00,0.570,0.836,0.504,1.066,0.739,0.323,0.585,0.556,�k�k��,7.2,��
2023/03/05,04:10,0.570,0.833,0.507,1.064,0.739,0.323,0.585,0.555,�k�k��,6.9,��
2023/03/05,04:20,0.571,0.837,0.505,1.065,0.740,0.323,0.584,0.555,�k�k��,7.5,��
2023/03/05,04:30,0.571,0.835,0.504,1.063,0.741,0.323,0.586,0.557,�k�k��,8.1,��
2023/03/05,04:40,0.570,0.834,0.505,1.065,0.740,0.322,0.584,0.557,�k�k��,7.6,��
2023/03/05,04:50,0.571,0.835,0.503,1.062,0.739,0.324,0.584,0.557,�k�k��,7.9,��
2023/03/05,05:00,0.571,0.834,0.504,1.063,0.740,0.323,0.585,0.558,�k�k��,7.8,��
2023/03/05,05:10,0.572,0.835,0.504,1.063,0.741,0.322,0.585,0.558,�k�k��,7.3,��
2023/03/05,05:20,0.570,0.834,0.507,1.064,0.738,0.323,0.583,0.557,�k�k��,7.5,��
2023/03/05,05:30,0.570,0.836,0.505,1.063,0.740,0.324,0.587,0.556,�k�k��,6.5,��
2023/03/05,05:40,0.570,0.833,0.505,1.064,0.738,0.323,0.584,0.556,�k��,6.5,��
2023/03/05,05:50,0.568,0.836,0.504,1.062,0.738,0.323,0.585,0.557,�k�k��,6.9,��
2023/03/05,06:00,0.572,0.834,0.505,1.064,0.740,0.322,0.586,0.556,�k�k��,7.2,��
2023/03/05,06:10,0.570,0.835,0.505,1.063,0.738,0.323,0.584,0.556,�k�k��,6.9,��
2023/03/05,06:20,0.570,0.833,0.504,1.064,0.739,0.324,0.584,0.556,�k�k��,8.3,��
2023/03/05,06:30,0.572,0.833,0.506,1.063,0.739,0.324,0.584,0.556,�k�k��,7.9,��
2023/03/05,06:40,0.569,0.834,0.504,1.063,0.740,0.325,0.585,0.557,�k��,7.1,��
2023/03/05,06:50,0.570,0.835,0.504,1.063,0.739,0.323,0.584,0.556,�k�k��,6.6,��
2023/03/05,07:00,0.571,0.835,0.505,1.064,0.741,0.323,0.584,0.556,�k��,7.5,��
2023/03/05,07:10,0.569,0.834,0.504,1.063,0.738,0.323,0.586,0.556,�k��,6.5,��
2023/03/05,07:20,0.571,0.836,0.504,1.064,0.739,0.323,0.585,0.556,�k��,6.6,��
2023/03/05,07:30,0.569,0.836,0.504,1.065,0.740,0.323,0.586,0.556,�k��,6.0,��
2023/03/05,07:40,0.570,0.838,0.506,1.063,0.738,0.323,0.586,0.558,�k�k��,6.2,��
2023/03/05,07:50,0.571,0.835,0.504,1.064,0.739,0.324,0.584,0.556,�k�k��,5.5,��
2023/03/05,08:00,0.573,0.837,0.505,1.064,0.739,0.325,0.586,0.557,�k�k��,5.6,��
2023/03/05,08:10,0.573,0.837,0.505,1.065,0.739,0.323,0.586,0.556,�k�k��,4.1,��
2023/03/05,08:20,0.570,0.837,0.505,1.064,0.740,0.324,0.586,0.556,�k�k��,5.5,��
2023/03/05,08:30,0.571,0.836,0.506,1.064,0.740,0.324,0.587,0.558,�k�k��,5.0,��
2023/03/05,08:40,0.573,0.837,0.505,1.063,0.740,0.323,0.585,0.556,�k,4.5,��
2023/03/05,08:50,0.571,0.835,0.505,1.063,0.740,0.324,0.586,0.557,�k�k��,4.6,��
2023/03/05,09:00,0.571,0.835,0.505,1.065,0.741,0.323,0.585,0.557,�k,5.4,��
2023/03/05,09:10,0.572,0.834,0.507,1.063,0.740,0.324,0.586,0.556,�k,5.4,��
2023/03/05,09:20,0.572,0.835,0.506,1.063,0.740,0.325,0.584,0.556,�k�k��,4.6,��
2023/03/05,09:30,0.571,0.833,0.506,1.065,0.739,0.324,0.585,0.557,�k,3.7,��
2023/03/05,09:40,0.572,0.835,0.507,1.063,0.741,0.324,0.584,0.557,�k,6.0,��
2023/03/05,09:50,0.570,0.834,0.506,1.064,0.740,0.324,0.583,0.556,�k�k��,5.6,��
2023/03/05,10:00,0.571,0.834,0.506,1.066,0.741,0.323,0.585,0.558,�k�k��,5.0,��
2023/03/05,10:10,0.571,0.835,0.505,1.065,0.740,0.323,0.585,0.559,�k�k��,5.4,��
2023/03/05,10:20,0.570,0.835,0.506,1.065,0.741,0.325,0.585,0.558,�k�k��,5.7,��
2023/03/05,10:30,0.571,0.834,0.505,1.063,0.740,0.325,0.584,0.555,�k�k��,5.2,��
2023/03/05,10:40,0.569,0.834,0.506,1.067,0.740,0.324,0.585,0.555,�k�k��,4.8,��
2023/03/05,10:50,0.570,0.835,0.507,1.063,0.740,0.324,0.583,0.556,�k�k��,5.0,��
2023/03/05,11:00,0.573,0.836,0.506,1.065,0.740,0.324,0.585,0.556,�k�k��,4.3,��
2023/03/05,11:10,0.571,0.836,0.507,1.064,0.741,0.324,0.584,0.556,�k�k��,4.6,��
2023/03/05,11:20,0.574,0.836,0.506,1.064,0.742,0.324,0.584,0.555,�k��,4.8,��
2023/03/05,11:30,0.573,0.836,0.506,1.065,0.741,0.324,0.585,0.554,�k��,4.5,��
2023/03/05,11:40,0.574,0.835,0.506,1.064,0.742,0.323,0.584,0.556,�k�k��,4.8,��
2023/03/05,11:50,0.572,0.836,0.506,1.064,0.742,0.323,0.585,0.558,�k��,4.9,��
2023/03/05,12:00,0.573,0.833,0.505,1.064,0.742,0.324,0.584,0.558,�k�k��,5.2,��
2023/03/05,12:10,0.572,0.836,0.506,1.064,0.741,0.325,0.584,0.558,�k�k��,5.6,��
2023/03/05,12:20,0.575,0.834,0.508,1.065,0.741,0.324,0.585,0.558,�k�k��,4.9,��
2023/03/05,12:30,0.574,0.836,0.508,1.064,0.741,0.324,0.586,0.558,�k��,4.9,��
2023/03/05,12:40,0.573,0.834,0.507,1.065,0.742,0.323,0.585,0.557,�k��,4.7,��
2023/03/05,12:50,0.573,0.836,0.507,1.065,0.740,0.324,0.587,0.558,�k��,4.0,��
2023/03/05,13:00,0.573,0.836,0.507,1.065,0.742,0.325,0.584,0.558,�k��,3.6,��
2023/03/05,13:10,0.575,0.835,0.506,1.066,0.740,0.325,0.586,0.559,�k��,3.4,��
2023/03/05,13:20,0.572,0.835,0.506,1.066,0.740,0.325,0.584,0.559,�k��,3.3,��
2023/03/05,13:30,0.572,0.838,0.505,1.064,0.742,0.325,0.585,0.558,�k��,3.4,��
2023/03/05,13:40,0.572,0.838,0.505,1.065,0.742,0.325,0.585,0.557,�k��,3.2,��
2023/03/05,13:50,0.573,0.837,0.504,1.064,0.743,0.324,0.586,0.555,�k��,2.8,��
2023/03/05,14:00,0.574,0.839,0.506,1.067,0.742,0.324,0.584,0.557,���k��,2.6,��
2023/03/05,14:10,0.573,0.837,0.506,1.066,0.742,0.324,0.585,0.557,�k��,3.0,��
2023/03/05,14:20,0.574,0.837,0.506,1.065,0.742,0.325,0.584,0.555,���k��,3.0,��
2023/03/05,14:30,0.573,0.838,0.507,1.063,0.740,0.324,0.584,0.557,�k��,3.0,��
2023/03/05,14:40,0.573,0.839,0.507,1.064,0.741,0.324,0.583,0.556,�k��,3.3,��
2023/03/05,14:50,0.572,0.838,0.506,1.063,0.742,0.325,0.586,0.556,�k��,3.1,��
2023/03/05,15:00,0.573,0.838,0.508,1.067,0.742,0.324,0.584,0.556,���k��,2.6,��
2023/03/05,15:10,0.573,0.837,0.507,1.065,0.741,0.324,0.584,0.555,�k��,2.3,��
2023/03/05,15:20,0.572,0.839,0.508,1.065,0.741,0.325,0.586,0.555,���k��,2.5,��
2023/03/05,15:30,0.572,0.840,0.506,1.064,0.742,0.325,0.584,0.555,�k�k��,2.8,��
2023/03/05,15:40,0.572,0.838,0.508,1.064,0.741,0.325,0.585,0.555,���k��,2.5,��
2023/03/05,15:50,0.572,0.839,0.507,1.067,0.741,0.323,0.585,0.557,�k��,1.5,��
2023/03/05,16:00,0.574,0.840,0.508,1.065,0.743,0.325,0.585,0.557,�k��,1.7,��
2023/03/05,16:10,0.574,0.840,0.506,1.063,0.742,0.324,0.585,0.558,��,2.0,��
2023/03/05,16:20,0.575,0.839,0.508,1.066,0.742,0.325,0.585,0.557,��,1.8,��
2023/03/05,16:30,0.574,0.838,0.508,1.065,0.745,0.325,0.585,0.558,���쓌,0.8,��
2023/03/05,16:40,0.573,0.841,0.507,1.064,0.744,0.325,0.586,0.557,���쓌,0.9,��
2023/03/05,16:50,0.573,0.839,0.508,1.065,0.744,0.325,0.588,0.558,���쓌,1.9,��
2023/03/05,17:00,0.574,0.838,0.509,1.065,0.741,0.323,0.586,0.557,��쓌,2.3,��
2023/03/05,17:10,0.575,0.837,0.507,1.064,0.742,0.324,0.587,0.558,��,2.0,��
2023/03/05,17:20,0.574,0.839,0.507,1.065,0.742,0.323,0.586,0.556,��,1.9,��
2023/03/05,17:30,0.575,0.837,0.506,1.066,0.741,0.325,0.587,0.557,��쐼,1.5,��
2023/03/05,17:40,0.573,0.840,0.508,1.062,0.743,0.324,0.586,0.559,��,2.3,��
2023/03/05,17:50,0.572,0.839,0.507,1.063,0.742,0.324,0.587,0.557,��쐼,1.4,��
2023/03/05,18:00,0.573,0.838,0.507,1.067,0.743,0.325,0.588,0.558,��,1.7,��
2023/03/05,18:10,0.572,0.838,0.506,1.063,0.743,0.324,0.584,0.557,��쐼,1.7,��
2023/03/05,18:20,0.574,0.837,0.506,1.067,0.743,0.325,0.587,0.556,��쐼,1.1,��
2023/03/05,18:30,0.574,0.839,0.507,1.064,0.744,0.323,0.587,0.557,��,1.5,��
2023/03/05,18:40,0.573,0.839,0.506,1.064,0.741,0.324,0.585,0.558,�쐼,0.9,��
2023/03/05,18:50,0.574,0.839,0.506,1.064,0.743,0.324,0.587,0.557,��쐼,1.4,��
2023/03/05,19:00,0.572,0.837,0.507,1.064,0.742,0.323,0.585,0.557,��,0.9,��
2023/03/05,19:10,0.573,0.838,0.507,1.063,0.741,0.324,0.586,0.556,��,1.8,��
2023/03/05,19:20,0.574,0.835,0.507,1.065,0.742,0.324,0.585,0.557,��,1.2,��
2023/03/05,19:30,0.572,0.838,0.505,1.064,0.742,0.325,0.586,0.556,��쐼,2.2,��
2023/03/05,19:40,0.572,0.838,0.506,1.064,0.742,0.323,0.585,0.557,��쐼,2.0,��
2023/03/05,19:50,0.573,0.837,0.507,1.064,0.742,0.324,0.586,0.555,��쐼,2.3,��
2023/03/05,20:00,0.572,0.837,0.506,1.064,0.741,0.324,0.586,0.557,��쐼,2.6,��
2023/03/05,20:10,0.574,0.836,0.507,1.064,0.742,0.323,0.585,0.557,��쐼,3.3,��
2023/03/05,20:20,0.573,0.837,0.506,1.065,0.744,0.323,0.586,0.557,��쐼,3.0,��
2023/03/05,20:30,0.573,0.839,0.507,1.062,0.742,0.324,0.587,0.557,��쐼,2.5,��
2023/03/05,20:40,0.574,0.836,0.506,1.064,0.740,0.324,0.585,0.556,��쐼,2.6,��
2023/03/05,20:50,0.573,0.839,0.506,1.065,0.742,0.325,0.585,0.558,��쐼,2.8,��
2023/03/05,21:00,0.572,0.839,0.506,1.064,0.742,0.324,0.585,0.557,��쐼,2.9,��
2023/03/05,21:10,0.572,0.838,0.506,1.063,0.741,0.324,0.584,0.556,��쐼,2.6,��
2023/03/05,21:20,0.574,0.839,0.505,1.067,0.742,0.325,0.586,0.557,��쐼,2.0,��
2023/03/05,21:30,0.573,0.837,0.504,1.063,0.741,0.324,0.586,0.556,�쐼,1.7,��
2023/03/05,21:40,0.574,0.837,0.507,1.064,0.741,0.324,0.586,0.556,��쐼,0.9,��
2023/03/05,21:50,0.573,0.837,0.506,1.065,0.742,0.324,0.586,0.557,�쐼,1.1,��
2023/03/05,22:00,0.572,0.839,0.504,1.063,0.742,0.324,0.586,0.556,���쐼,1.2,��
2023/03/05,22:10,0.572,0.837,0.506,1.063,0.742,0.325,0.587,0.557,�쐼,1.8,��
2023/03/05,22:20,0.572,0.836,0.509,1.064,0.742,0.323,0.586,0.556,��쐼,2.0,��
2023/03/05,22:30,0.573,0.837,0.507,1.062,0.742,0.324,0.584,0.557,��쐼,2.0,��
2023/03/05,22:40,0.572,0.836,0.507,1.064,0.741,0.325,0.586,0.557,��쐼,1.9,��
2023/03/05,22:50,0.575,0.837,0.506,1.066,0.742,0.324,0.586,0.557,��쐼,1.2,��
2023/03/05,23:00,0.573,0.836,0.506,1.064,0.740,0.324,0.587,0.558,�쐼,1.2,��
2023/03/05,23:10,0.571,0.837,0.505,1.065,0.741,0.323,0.586,0.556,�쐼,0.9,��
2023/03/05,23:20,0.572,0.837,0.507,1.063,0.743,0.324,0.587,0.557,��쐼,1.4,��
2023/03/05,23:30,0.572,0.837,0.508,1.063,0.743,0.324,0.586,0.557,��쐼,1.5,��
2023/03/05,23:40,0.572,0.836,0.506,1.064,0.742,0.324,0.586,0.558,��쐼,1.4,��
2023/03/05,23:50,0.572,0.835,0.507,1.063,0.742,0.324,0.585,0.556,��쐼,2.0,��
